Weather History for Yellowstone, WY

Change the Weather History Date:

Friday, July 5, 2013

  Actual Average Record
Temperature  
Mean Temperature 58 °F 54 °F  
Max Temperature 72 °F 70 °F 81 °F (2007)
Min Temperature 44 °F 39 °F 33 °F (2004)
Degree Days  
Heating Degree Days 7 11  
Month to date heating degree days 12 57  
Since 1 June heating degree days 445 550  
Since 1 July heating degree days 12 57  
Cooling Degree Days 0 0  
Month to date cooling degree days 0 0  
Year to date cooling degree days 0 0  
Since 1 June cooling degree days 0 0  
Growing Degree Days 8 (Base 50)    
Moisture  
Dew Point 48 °F    
Average Humidity 68    
Maximum Humidity 100    
Minimum Humidity 35    
Precipitation  
Precipitation 0.29 in 0.04 in 0.29 in (2013)
Month to date precipitation 0.40 0.22  
Year to date precipitation 10.15 11.30  
Sea Level Pressure  
Sea Level Pressure 29.90 in    
Wind  
Wind Speed 3 mph (West)    
Max Wind Speed 15 mph    
Max Gust Speed 29 mph    
T = Trace of Precipitation, MM = Missing Value Source: NWS Daily Summary

Daily Weather History Graph

Daily Weather History Graph

Search for Another Location

Airport:

Trip Planner

Search our weather history database for the weather conditions in past years. The results will help you decide how hot, cold, wet, or windy it might be!

Date:

Astronomy

Jul. 05, 2013 Rise Set
Actual Time 5:43 AM MDT 9:09 PM MDT
Civil Twilight 5:06 AM MDT 9:45 PM MDT
Nautical Twilight 4:19 AM MDT 10:33 PM MDT
Astronomical Twilight 3:18 AM MDT 11:33 PM MDT
Moon 3:47 AM MDT (7/5) 7:04 PM MDT (7/5)
Length of Visible Light 16h 38m
Length of Day
15h 25m
Waning Crescent, 6% of the Moon is Illuminated
Jul 5
Waning Crescent
Jul 8
New
Jul 15
First Quarter
Jul 22
Full
Jul 29
Last Quarter

Hourly Weather History & Observations

Time (MDT) Temp. Windchill Dew Point Humidity Pressure Visibility Wind Dir Wind Speed Gust Speed Precip Events Conditions
12:56 AM 48.0 °F - 46.9 °F 96% 29.92 in - West 3.5 mph - N/A   Unknown
1:56 AM 50.0 °F - 50.0 °F 100% 29.91 in - Calm Calm - N/A   Unknown
2:56 AM 52.0 °F - 51.1 °F 97% 29.91 in - Variable 4.6 mph - 0.01 in   Unknown
3:56 AM 51.1 °F - 50.0 °F 96% 29.84 in - Calm Calm - 0.07 in   Unknown
4:56 AM 52.0 °F - 51.1 °F 97% 29.86 in - Variable 3.5 mph - 0.01 in   Unknown
5:56 AM 51.1 °F - 50.0 °F 96% 29.89 in - Calm Calm - 0.10 in   Unknown
6:56 AM 51.1 °F - 50.0 °F 96% 29.94 in - Calm Calm - 0.02 in   Unknown
7:56 AM 52.0 °F - 51.1 °F 97% 29.96 in - Calm Calm - 0.04 in   Unknown
8:56 AM 55.9 °F - 52.0 °F 87% 29.95 in - Calm Calm - 0.02 in   Unknown
9:56 AM 57.0 °F - 52.0 °F 83% 29.95 in - SSE 3.5 mph - N/A   Unknown
10:56 AM 63.0 °F - 48.9 °F 60% 29.92 in - Variable 6.9 mph 23.0 mph N/A   Unknown
11:56 AM 66.0 °F - 48.9 °F 54% 29.91 in - Variable 4.6 mph - N/A   Unknown
12:56 PM 66.9 °F - 48.9 °F 52% 29.89 in - Variable 6.9 mph - N/A   Unknown
1:56 PM 66.9 °F - 48.0 °F 51% 29.87 in - Variable 6.9 mph - N/A   Unknown
2:56 PM 70.0 °F - 45.0 °F 41% 29.85 in - West 9.2 mph 19.6 mph N/A   Unknown
3:56 PM 71.1 °F - 43.0 °F 36% 29.83 in - South 8.1 mph - N/A   Unknown
4:56 PM 69.1 °F - 42.1 °F 38% 29.80 in - Calm Calm - N/A   Unknown
5:56 PM 64.0 °F - 42.1 °F 45% 29.83 in - Calm Calm - N/A   Unknown
6:56 PM 53.1 °F - 42.1 °F 66% 29.91 in - NNW 8.1 mph 21.9 mph N/A   Unknown
7:56 PM 53.1 °F - 45.0 °F 74% 29.89 in - Calm Calm - N/A   Unknown
8:56 PM 50.0 °F - 46.9 °F 89% 29.94 in - Variable 3.5 mph - 0.02 in   Unknown
9:56 PM 48.9 °F - 46.9 °F 93% 29.95 in - Calm Calm - N/A   Unknown
10:56 PM 46.9 °F - 45.0 °F 93% 29.94 in - NW 3.5 mph - N/A   Unknown
11:56 PM 45.0 °F 43.5 °F 44.1 °F 97% 29.92 in - WNW 3.5 mph - N/A   Unknown